STARLINK-2749 (48429 NORAD) Tracking and Keplerian Element Data

This shows tracking and keplerian element data for the satellite.

Feedback or suggestion? Click here.




ElementValue
Catalog48429
NameSTARLINK-2749
Epoch Orbit1483
Epoch Day215.16667824
Epoch Year2021
RAAN156.1043
Inclination53.0469
Eccentricity0.0002157
Argument of Perigee26.8088
Mean Anonmoly52.6649
Mean Motion15.7324824
Decay Rate-0.00033761
L11 48429U 21040B 21215.16667824 -.00033761 00000-0 -23652-3 0 9998
L22 48429 53.0469 156.1043 0002157 26.8088 52.6649 15.73248240 14837

Live tracking and technical data element details for STARLINK-2749 (NORAD 48429). STARLINK-2749 can be tracked NOW for your location showing map with azimuth and elevation plus other details from your city location.

Track the satellite on the map from your city or location and see movement details for azimuth, elevation, latitude, longitude, range, height, and movement on the map or in text.







IsCatalogInMostPopularTable: catalog: 48429, numindb: 29
Update: records affected: 1



GetName: 48429 STARLINK-2749

Hit Count: updated at: Tue, 03 Aug 2021 21:28:46 GMT